Zurück zum Katalog

JILIN-1 GAOFEN 07C 02 XING

AktivWissenschaftSSO
NORAD 68697·PAYLOAD·🇨🇳 China
Dieser Satellitenname wurde noch nicht durch offizielle Quellen bestätigt.

Gestartet Apr 14, 2026 von Jiuquan Satellite Launch Center

Loading…

Nächste Überflüge (nächste 24 Stunden)

TLE

AktuellSource: Space-Track

Epoche: Sep 14, 2026, 15:01 UTC

1 68697U 26080G   26257.62606836  .00004567  00000-0  29273-3 0  9999
2 68697  97.6591 333.1555 0017606 124.8315 235.4572 15.08903103 23119

Verfolge JILIN-1 GAOFEN 07C 02 XING in Echtzeit mit AllMySat

Download on the App Store